New Philadelphia, OH

10:09 PM EDT on June 23, 2017 (GMT -0400)
Clever

Weather History for KPHD - September, 2013

Change the Weather History Date:

Wednesday, September 11, 2013

  Actual Average Record
Temperature  
Mean Temperature 82 °F 66 °F  
Max Temperature 92 °F 78 °F 95 °F (1964)
Min Temperature 71 °F 54 °F 38 °F (1995)
Degree Days  
Heating Degree Days 0 2  
Month to date heating degree days 10 13  
Since 1 July heating degree days 24 23  
Cooling Degree Days 17 3  
Month to date cooling degree days 63 39  
Year to date cooling degree days 708 661  
Growing Degree Days 31 (Base 50)    
Moisture  
Dew Point 69 °F    
Average Humidity 72    
Maximum Humidity 93    
Minimum Humidity 50    
Precipitation  
Precipitation 0.00 in 0.13 in 0.41 in (2007)
Month to date precipitation 0.30 1.40  
Year to date precipitation 24.04 28.35  
Sea Level Pressure  
Sea Level Pressure 30.08 in    
Wind  
Wind Speed 4 mph (South)    
Max Wind Speed 12 mph    
Max Gust Speed 15 mph    
Visibility 7 miles    
Events      
T = Trace of Precipitation, MM = Missing Value Source: NWS Daily Summary

Daily Weather History Graph

Daily Weather History Graph

Search for Another Location

Airport or City:

Trip Planner

Search our weather history database for the weather conditions in past years. The results will help you decide how hot, cold, wet, or windy it might be!

Date:

Astronomy

Sep. 11, 2013 Rise Set
Actual Time 7:02 AM EDT 7:40 PM EDT
Civil Twilight 6:35 AM EDT 8:08 PM EDT
Nautical Twilight 6:02 AM EDT 8:40 PM EDT
Astronomical Twilight 5:29 AM EDT 9:14 PM EDT
Moon 1:30 PM EDT (9/11) 11:34 PM EDT (9/11)
Length of Visible Light 13h 33m
Length of Day
12h 38m
Waxing Crescent, 38% of the Moon is Illuminated
Sep 11
Waxing Crescent
Sep 12
First Quarter
Sep 19
Full
Sep 26
Last Quarter
Oct 4
New

Hourly Weather History & Observations

Time (EDT) Temp. Heat Index Dew Point Humidity Pressure Visibility Wind Dir Wind Speed Gust Speed Precip Events Conditions
12:53 AM 75.9 °F - 72.0 °F 87% 30.12 in 6.0 mi ESE 3.5 mph - N/A   Clear
1:53 AM 75.0 °F - 71.1 °F 87% 30.11 in 5.0 mi SSE 4.6 mph - N/A   Clear
2:53 AM 75.0 °F - 71.1 °F 87% 30.11 in 5.0 mi SE 4.6 mph - N/A   Clear
3:53 AM 73.9 °F - 71.1 °F 91% 30.11 in 5.0 mi SE 3.5 mph - N/A   Clear
4:53 AM 72.0 °F - 69.1 °F 91% 30.11 in 4.0 mi Calm Calm - N/A   Clear
5:53 AM 73.0 °F - 70.0 °F 90% 30.12 in 4.0 mi SE 4.6 mph - N/A   Clear
6:53 AM 72.0 °F - 69.1 °F 91% 30.13 in 4.0 mi Calm Calm - N/A   Clear
7:53 AM 73.0 °F - 70.0 °F 90% 30.14 in 3.0 mi Calm Calm - N/A   Mostly Cloudy
8:53 AM 78.1 °F - 70.0 °F 76% 30.14 in 7.0 mi SW 4.6 mph - N/A   Partly Cloudy
9:53 AM 80.1 °F 83.2 °F 70.0 °F 71% 30.15 in 9.0 mi SW 4.6 mph - N/A   Partly Cloudy
10:53 AM 84.0 °F 88.4 °F 70.0 °F 63% 30.14 in - North - - N/A   Unknown
11:53 AM 86.0 °F 90.1 °F 69.1 °F 57% 30.12 in 10.0 mi Variable 5.8 mph - N/A   Clear
12:53 PM 89.1 °F 93.7 °F 69.1 °F 52% 30.10 in 10.0 mi West 5.8 mph - N/A   Partly Cloudy
1:53 PM 90.0 °F 95.4 °F 70.0 °F 52% 30.07 in 10.0 mi South 8.1 mph - N/A   Clear
2:53 PM 90.0 °F 93.6 °F 68.0 °F 48% 30.06 in 10.0 mi SSW 5.8 mph - N/A   Partly Cloudy
3:53 PM 88.0 °F 92.1 °F 69.1 °F 53% 30.03 in 9.0 mi SW 3.5 mph - N/A   Clear
4:53 PM 86.0 °F 91.5 °F 71.1 °F 61% 30.04 in 8.0 mi West 5.8 mph - N/A   Clear
5:53 PM 84.9 °F 89.4 °F 70.0 °F 61% 30.02 in 8.0 mi SSW 3.5 mph - N/A   Clear
6:53 PM 82.0 °F 84.5 °F 66.9 °F 60% 30.01 in 10.0 mi SSW 3.5 mph - N/A   Clear
7:53 PM 79.0 °F - 66.9 °F 66% 30.04 in 9.0 mi Calm Calm - N/A   Clear
8:53 PM 79.0 °F - 68.0 °F 69% 30.02 in 9.0 mi Calm Calm - N/A   Clear
9:53 PM 77.0 °F - 68.0 °F 74% 30.03 in 9.0 mi Variable 3.5 mph - N/A   Clear
10:53 PM 73.9 °F - 68.0 °F 82% 30.02 in 8.0 mi Variable 3.5 mph - N/A   Clear
11:53 PM 73.0 °F - 66.9 °F 81% 30.01 in 8.0 mi SE 3.5 mph - N/A   Partly Cloudy